Regional Weather Roundup
Issued by NWS

Home | Current Version | Previous Version | Graphics & Text | Print | Product List | Glossary On
Versions: 1 2 3 4 5 6 7 8 9 10 11 12 13 14 15 16 17 18 19 20 21 22 23 24 25 26 27 28 29 30 31 32 33 34 35 36 37 38 39 40 41 42 43 44 45 46 47 48 49 50
138
ASUS44 KJAN 260710
RWRMS

MISSISSIPPI HOURLY WEATHER ROUNDUP
NATIONAL WEATHER SERVICE JACKSON MS
100 AM CST WED NOV 26 2014

NOTE: "FAIR: INDICATES FEW OR NO CLOUDS BELOW 12,000 FEET WITH NO
SIGNIFICANT WEATHER AND/OR OBSTRUCTIONS TO VISIBILITY.

MSZ001>002-007>008-010>013-018>021-025>028-034>036-260800-
NORTHWEST MISSISSIPPI

CITY           SKY/WX    TMP DP  RH WIND       PRES   REMARKS
CLARKSDALE     FAIR      32  32 100 CALM      30.18F
CLEVELAND      FAIR      35  32  90 CALM      30.17F
GREENWOOD      CLEAR     28  26  92 CALM      30.19S
GREENVILLE     CLEAR     34  30  85 CALM      30.17F
GRENADA        FAIR      28  28 100 CALM      30.19S
OLIVE BRANCH   CLEAR     30  30 100 CALM      30.16F
OXFORD         FAIR      27  25  93 CALM      30.18S
TUNICA         SUNNY     32  32 100 CALM      30.18S
$$

MSZ003>006-009-014>017-022>024-029>033-037>039-260800-
NORTHEAST MISSISSIPPI

CITY           SKY/WX    TMP DP  RH WIND       PRES   REMARKS
COLUMBUS AFB   CLEAR     29  24  81 NW5       30.16F WCI  24
CORINTH        FAIR      28  27  93 CALM      30.15F
GOLDN TRIANGLE CLEAR     34  27  75 NW5       30.15F WCI  30
STARKVILLE       N/A     28  28 100 CALM      30.17S
TUPELO         CLEAR     31  26  82 CALM      30.16F
$$

MSZ040-058-260800-
CENTRAL MISSISSIPPI

CITY           SKY/WX    TMP DP  RH WIND       PRES   REMARKS
JACKSON INTL   CLEAR     30  27  88 CALM      30.19S
JACKSON HAWKNS CLEAR     32  28  85 CALM      30.19F
MERIDIAN KEY   CLEAR     33  29  85 S3        30.18S
MERIDIAN NAS   CLEAR     35  29  78 NW3       30.18R
RAYMOND        FAIR      28  25  86 MISG      30.19F
VICKSBURG      CLEAR     29  27  92 CALM      30.19F FOG
$$

MSZ059>079-260800-
SOUTH MISSISSIPPI

CITY           SKY/WX    TMP DP  RH WIND       PRES   REMARKS
BROOKHAVEN     FAIR      32  30  93 CALM      30.21F
HATTIESBURG    CLEAR     38  31  76 CALM      30.20S
MCCOMB         CLEAR     31  28  89 CALM      30.20F
NATCHEZ        CLEAR     32  27  80 CALM      30.19F
PINE BELT      CLEAR     37  27  65 NW3       30.19F
$$

MSZ080>082-260800-
COASTAL MISSISSIPPI

CITY           SKY/WX    TMP DP  RH WIND       PRES   REMARKS
BILOXI         CLEAR     45  33  63 NW12      30.18S
PASCAGOULA     PTCLDY    45  29  53 NW7       30.18R
GULFPORT       CLEAR     42  32  67 NW7       30.19R
$$



USA.gov is the U.S. government's official web portal to all federal, state and local government web resources and services.